Météo par heure à Dziadowo

Ce jour, 23 Janvier, Samedi

Heure Température Précipitation Vent Pression Humidité
00:00 0°C° 0 mm 3 m/s 744 mmHg 90%
01:00 0°C° 0 mm 3 m/s 745 mmHg 90%
02:00 +1°C° 0 mm 2 m/s 745 mmHg 90%
03:00 +1°C° 0 mm 2 m/s 745 mmHg 90%
04:00 +2°C° 0 mm 1 m/s 745 mmHg 89%
05:00 +2°C° 0 mm 1 m/s 745 mmHg 89%
06:00 +2°C° 0 mm 1 m/s 745 mmHg 88%
07:00 +2°C° 0 mm 1 m/s 745 mmHg 87%
08:00 +1°C° 0 mm 2 m/s 745 mmHg 86%
09:00 +2°C° 0 mm 2 m/s 745 mmHg 85%
10:00 +1°C° 0 mm 3 m/s 744 mmHg 85%
11:00 0°C° 0.4 mm 4 m/s 744 mmHg 87%
12:00 0°C° 0.4 mm 5 m/s 743 mmHg 89%
13:00 -1°C° 0.4 mm 6 m/s 743 mmHg 91%
14:00 -2°C° 1.2 mm 7 m/s 742 mmHg 93%
15:00 -2°C° 1.2 mm 8 m/s 741 mmHg 95%
16:00 -3°C° 1.2 mm 9 m/s 740 mmHg 96%
17:00 -3°C° 1.5 mm 9 m/s 740 mmHg 96%
18:00 -3°C° 1.5 mm 9 m/s 740 mmHg 97%
19:00 -2°C° 1.5 mm 10 m/s 740 mmHg 97%
20:00 -2°C° 1.1 mm 10 m/s 740 mmHg 97%
21:00 -2°C° 1.1 mm 10 m/s 740 mmHg 97%
22:00 -2°C° 1.1 mm 10 m/s 740 mmHg 97%
23:00 -1°C° 0.5 mm 9 m/s 741 mmHg 96%

Demain, 24 Janvier, Dimanche

Heure Température Précipitation Vent Pression Humidité
00:00 -1°C° 0.5 mm 9 m/s 741 mmHg 96%
01:00 -1°C° 0.5 mm 8 m/s 742 mmHg 96%
02:00 -1°C° 0.1 mm 8 m/s 742 mmHg 94%
03:00 -1°C° 0.1 mm 7 m/s 742 mmHg 93%
04:00 -1°C° 0.1 mm 6 m/s 742 mmHg 92%
05:00 0°C° 0 mm 5 m/s 743 mmHg 93%
06:00 -1°C° 0 mm 4 m/s 743 mmHg 93%
07:00 -1°C° 0 mm 4 m/s 744 mmHg 93%
08:00 -1°C° 0 mm 4 m/s 744 mmHg 92%
09:00 -1°C° 0 mm 4 m/s 744 mmHg 91%
10:00 -1°C° 0 mm 4 m/s 745 mmHg 91%
11:00 0°C° 0 mm 4 m/s 745 mmHg 90%
12:00 0°C° 0 mm 4 m/s 745 mmHg 89%
13:00 0°C° 0 mm 4 m/s 745 mmHg 88%
14:00 +1°C° 0 mm 3 m/s 745 mmHg 89%
15:00 0°C° 0 mm 3 m/s 745 mmHg 90%
16:00 +1°C° 0 mm 2 m/s 745 mmHg 90%
17:00 +1°C° 0 mm 2 m/s 745 mmHg 90%
18:00 +1°C° 0 mm 2 m/s 745 mmHg 89%
19:00 -1°C° 0 mm 2 m/s 746 mmHg 88%
20:00 -1°C° 0 mm 2 m/s 746 mmHg 88%
21:00 -1°C° 0 mm 3 m/s 745 mmHg 89%
22:00 -1°C° 0 mm 3 m/s 745 mmHg 89%
23:00 -1°C° 0 mm 3 m/s 746 mmHg 91%

Après-demain, 25 Janvier, Lundi

Heure Température Précipitation Vent Pression Humidité
00:00 -1°C° 0 mm 3 m/s 746 mmHg 92%
01:00 -1°C° 0 mm 3 m/s 746 mmHg 94%
02:00 -1°C° 0.1 mm 3 m/s 746 mmHg 95%
03:00 -1°C° 0.1 mm 3 m/s 746 mmHg 96%
04:00 -1°C° 0.1 mm 3 m/s 746 mmHg 97%
05:00 -2°C° 0.3 mm 4 m/s 746 mmHg 97%
06:00 -2°C° 0.3 mm 5 m/s 746 mmHg 96%
07:00 -2°C° 0.3 mm 5 m/s 747 mmHg 96%
08:00 -3°C° 0.2 mm 6 m/s 747 mmHg 93%
09:00 -3°C° 0.2 mm 6 m/s 747 mmHg 90%
10:00 -3°C° 0.2 mm 7 m/s 748 mmHg 87%
11:00 -2°C° 0 mm 7 m/s 748 mmHg 85%
12:00 -2°C° 0 mm 7 m/s 748 mmHg 84%
13:00 -2°C° 0 mm 7 m/s 748 mmHg 82%
14:00 -2°C° 0 mm 7 m/s 748 mmHg 84%
15:00 -2°C° 0 mm 7 m/s 749 mmHg 86%
16:00 -2°C° 0 mm 6 m/s 749 mmHg 88%
17:00 -2°C° 0.6 mm 6 m/s 749 mmHg 91%
18:00 -3°C° 0.6 mm 6 m/s 750 mmHg 94%
19:00 -3°C° 0.6 mm 6 m/s 750 mmHg 97%
20:00 -3°C° 0.3 mm 6 m/s 750 mmHg 96%
21:00 -2°C° 0.3 mm 5 m/s 751 mmHg 96%
22:00 -2°C° 0.3 mm 5 m/s 751 mmHg 95%
23:00 -2°C° 0.4 mm 5 m/s 751 mmHg 95%

26 Janvier, Mardi

Heure Température Précipitation Vent Pression Humidité
00:00 -2°C° 0.4 mm 5 m/s 751 mmHg 95%
01:00 -2°C° 0.4 mm 5 m/s 751 mmHg 95%
02:00 -2°C° 0.1 mm 5 m/s 752 mmHg 94%
03:00 -2°C° 0.1 mm 5 m/s 752 mmHg 93%
04:00 -2°C° 0.1 mm 4 m/s 752 mmHg 92%
05:00 -2°C° 0.1 mm 5 m/s 752 mmHg 94%
06:00 -2°C° 0.1 mm 5 m/s 752 mmHg 95%
07:00 -2°C° 0.1 mm 5 m/s 752 mmHg 96%
08:00 -3°C° 0.8 mm 6 m/s 753 mmHg 94%
09:00 -2°C° 0.8 mm 6 m/s 753 mmHg 93%
10:00 -2°C° 0.8 mm 7 m/s 753 mmHg 91%
11:00 -2°C° 0.1 mm 7 m/s 753 mmHg 90%
12:00 -2°C° 0.1 mm 7 m/s 754 mmHg 89%
13:00 -1°C° 0.1 mm 7 m/s 754 mmHg 89%
14:00 -2°C° 0 mm 7 m/s 754 mmHg 88%
15:00 -2°C° 0 mm 6 m/s 754 mmHg 87%
16:00 -2°C° 0 mm 6 m/s 754 mmHg 86%
17:00 -3°C° 0 mm 6 m/s 754 mmHg 86%
18:00 -2°C° 0 mm 5 m/s 754 mmHg 87%
19:00 -4°C° 0 mm 5 m/s 754 mmHg 88%
20:00 -4°C° 0 mm 5 m/s 754 mmHg 89%
21:00 -3°C° 0 mm 4 m/s 754 mmHg 90%
22:00 -3°C° 0 mm 4 m/s 754 mmHg 92%
23:00 -2°C° 0.1 mm 4 m/s 753 mmHg 94%

27 Janvier, Mercredi

Heure Température Précipitation Vent Pression Humidité
00:00 -2°C° 0.1 mm 4 m/s 753 mmHg 95%
01:00 -2°C° 0.1 mm 4 m/s 753 mmHg 97%
02:00 -2°C° 0.1 mm 4 m/s 753 mmHg 97%
03:00 -1°C° 0.1 mm 4 m/s 752 mmHg 97%
04:00 -1°C° 0.1 mm 4 m/s 752 mmHg 97%
05:00 -1°C° 0 mm 4 m/s 752 mmHg 97%
06:00 -2°C° 0 mm 4 m/s 752 mmHg 97%
07:00 -2°C° 0 mm 4 m/s 752 mmHg 96%
08:00 -1°C° 0 mm 3 m/s 752 mmHg 95%
09:00 -1°C° 0 mm 3 m/s 752 mmHg 94%
10:00 -1°C° 0 mm 3 m/s 752 mmHg 94%
11:00 -1°C° 0 mm 3 m/s 752 mmHg 94%
12:00 0°C° 0 mm 3 m/s 753 mmHg 94%
13:00 0°C° 0 mm 3 m/s 753 mmHg 94%
14:00 0°C° 0 mm 3 m/s 753 mmHg 93%
15:00 0°C° 0 mm 3 m/s 753 mmHg 93%
16:00 0°C° 0 mm 3 m/s 754 mmHg 93%
17:00 -1°C° 0 mm 4 m/s 754 mmHg 92%
18:00 -2°C° 0 mm 4 m/s 755 mmHg 92%
19:00 -2°C° 0 mm 4 m/s 755 mmHg 91%
20:00 -2°C° 0 mm 4 m/s 755 mmHg 91%
21:00 -2°C° 0 mm 4 m/s 755 mmHg 91%
22:00 -1°C° 0 mm 3 m/s 756 mmHg 91%
23:00 -2°C° 0 mm 3 m/s 756 mmHg 92%

28 Janvier, Jeudi

Heure Température Précipitation Vent Pression Humidité
00:00 -2°C° 0 mm 3 m/s 756 mmHg 93%
01:00 -2°C° 0 mm 3 m/s 756 mmHg 94%
02:00 -2°C° 0 mm 3 m/s 756 mmHg 92%
03:00 -1°C° 0 mm 3 m/s 755 mmHg 91%
04:00 -1°C° 0 mm 3 m/s 755 mmHg 89%
05:00 -1°C° 0 mm 3 m/s 755 mmHg 89%
06:00 -2°C° 0 mm 3 m/s 755 mmHg 89%
07:00 -2°C° 0 mm 2 m/s 755 mmHg 90%
08:00 -1°C° 0 mm 3 m/s 754 mmHg 90%
09:00 -1°C° 0 mm 3 m/s 754 mmHg 90%
10:00 -1°C° 0 mm 3 m/s 754 mmHg 91%
11:00 0°C° 0 mm 3 m/s 753 mmHg 91%
12:00 -1°C° 0 mm 4 m/s 753 mmHg 92%
13:00 -1°C° 0 mm 4 m/s 752 mmHg 93%
14:00 -1°C° 0 mm 4 m/s 752 mmHg 94%
15:00 -1°C° 0 mm 4 m/s 752 mmHg 95%
16:00 -1°C° 0 mm 4 m/s 751 mmHg 96%
17:00 -1°C° 0.1 mm 4 m/s 751 mmHg 96%
18:00 -1°C° 0.1 mm 5 m/s 751 mmHg 95%
19:00 -1°C° 0.1 mm 5 m/s 751 mmHg 94%
Voir plus

Nous avons besoin de votre consentement

Meteoprog et ses fournisseurs de services peuvent stocker et accéder à des données personnelles telles que des cookies, des identifiants d'appareils ou d'autres technologies similaires sur votre appareil et traiter ces données pour personnaliser le contenu et les publicités, ainsi que pour fournir des fonctionnalités de médias sociaux et analyser le trafic.

  • Stocker et/ou accéder à des informations sur votre appareil

    Des cookies, des identifiants d'appareils ou d'autres informations peuvent être stockés ou accessibles sur votre appareil aux fins indiquées ci-dessus.

  • Annonces et contenus personnalisés, mesure des annonces et des contenus, connaissance de l'audience et développement de produits

    Les annonces et le contenu peuvent être personnalisés en fonction d'un profil. D'autres données peuvent être ajoutées pour mieux personnaliser les annonces et le contenu. Les performances des publicités et du contenu peuvent être mesurées. Il est possible d'obtenir des informations sur le public qui a vu les publicités et le contenu. Ces données peuvent être utilisées pour développer ou améliorer l'expérience de l'utilisateur, les systèmes et les logiciels.

En cliquant sur "J'accepte", vous autorisez l'utilisation de cookies, des identifiants d'appareils, des balises web ou d'autres technologies similaires. Vos paramètres peuvent être modifiés dans le navigateur de votre appareil.

Dans certains cas, des intérêts légitimes peuvent être invoqués plutôt qu'un consentement. Vous pouvez en savoir plus à ce sujet dans notre Politique de confidentialité et de cookies.